DLH612 EDDF-UBBB

Flight info

Callsign DLH612
Flight time N/A
Altitude 31000
Route CINDY8S CINDY Z74 HAREM DCT ASLEP DCT TAKUT L603 BESNI/N0454F370 L605 MIQ DCT ALUTU DCT BIBAG L605 ESEGA DCT STEIN DCT TEGRI/N0453F390 DCT DINRO N743 UDROS UM859 KARDE UN644 ROLIN N644 LAGAS M747 SUBUT T923 ERLEV ERLEV2E
Aircraft A20N/M-SDE2E3FGHIJ1RWXY/LB1

Departure

Time N/A
Airport Frankfurt Main Airport (EDDF)

Arrival

Time 2025-09-06 23:18
Airport Heydar Aliyev International Airport (UBBB)
Time Latitude Longitude Altitude Speed Heading
2025-09-06 21:48 42.14242 35.47596 37735 ft 490 kts 104°
2025-09-06 21:49 42.11635 35.65573 37999 ft 492 kts 105°
2025-09-06 21:51 42.06291 36.01693 38385 ft 494 kts 106°
2025-09-06 21:53 42.00826 36.37793 38731 ft 495 kts 106°
2025-09-06 21:55 41.95225 36.73981 38993 ft 496 kts 107°
2025-09-06 21:56 41.90572 37.05712 38990 ft 501 kts 100°
2025-09-06 21:59 41.89737 37.47962 38981 ft 505 kts 95°
2025-09-06 22:01 41.89035 37.85580 38973 ft 505 kts 96°
2025-09-06 22:02 41.88319 38.18475 38966 ft 505 kts 96°
2025-09-06 22:05 41.87258 38.60874 38957 ft 508 kts 96°
2025-09-06 22:06 41.86321 38.93961 38958 ft 510 kts 96°
2025-09-06 22:09 41.84965 39.36782 38963 ft 513 kts 96°
2025-09-06 22:10 41.83802 39.70193 38961 ft 515 kts 97°
2025-09-06 22:13 41.82151 40.13298 38952 ft 516 kts 97°
2025-09-06 22:14 41.80758 40.46820 38951 ft 516 kts 97°
2025-09-06 22:16 41.78988 40.85131 38952 ft 516 kts 97°
2025-09-06 22:18 41.77028 41.23381 38952 ft 516 kts 97°
2025-09-06 22:21 41.74673 41.66394 38953 ft 516 kts 97°
2025-09-06 22:22 41.72724 41.99878 38958 ft 517 kts 97°
2025-09-06 22:24 41.70378 42.38219 38959 ft 519 kts 97°
2025-09-06 22:26 41.67882 42.76716 38970 ft 520 kts 98°
2025-09-06 22:29 41.64928 43.19848 39007 ft 521 kts 98°
2025-09-06 22:30 41.62499 43.53531 39075 ft 523 kts 98°
2025-09-06 22:33 41.59257 43.96874 39091 ft 521 kts 98°
2025-09-06 22:34 41.55528 44.30107 39074 ft 517 kts 111°
2025-09-06 22:36 41.46454 44.66454 39067 ft 516 kts 113°
2025-09-06 22:38 41.37335 45.02586 39048 ft 517 kts 113°
2025-09-06 22:40 41.28380 45.38808 39042 ft 519 kts 108°
2025-09-06 22:42 41.21205 45.75914 39043 ft 520 kts 109°
2025-09-06 22:45 41.12838 46.17493 39046 ft 520 kts 109°
2025-09-06 22:46 41.06226 46.49767 39037 ft 520 kts 109°
2025-09-06 22:48 40.98539 46.86661 39020 ft 521 kts 110°
2025-09-06 22:50 40.90734 47.23464 38907 ft 522 kts 110°
2025-09-06 22:53 40.81768 47.64394 35350 ft 502 kts 112°
2025-09-06 22:54 40.73881 47.95439 30381 ft 510 kts 111°
2025-09-06 22:56 40.65102 48.29815 25263 ft 475 kts 110°
2025-09-06 22:57 40.63005 48.37952 24066 ft 467 kts 110°
2025-09-06 22:57 40.60950 48.45926 22940 ft 457 kts 110°
2025-09-06 22:58 40.58929 48.53769 21835 ft 447 kts 110°
2025-09-06 22:58 40.56942 48.61474 20117 ft 454 kts 110°
2025-09-06 22:59 40.53722 48.73036 18550 ft 428 kts 116°
2025-09-06 22:59 40.52534 48.76506 18268 ft 417 kts 116°
2025-09-06 23:00 40.50162 48.83323 17191 ft 408 kts 116°
2025-09-06 23:00 40.48006 48.90168 16097 ft 401 kts 113°
2025-09-06 23:01 40.46027 48.96876 15063 ft 393 kts 112°
2025-09-06 23:01 40.44116 49.03509 14038 ft 385 kts 112°
2025-09-06 23:02 40.42218 49.09900 13407 ft 366 kts 112°
2025-09-06 23:02 40.40422 49.15955 12877 ft 348 kts 111°
2025-09-06 23:03 40.38848 49.21902 11915 ft 345 kts 110°
2025-09-06 23:03 40.37297 49.27827 10896 ft 343 kts 109°
2025-09-06 23:04 40.35763 49.33716 9746 ft 344 kts 109°
2025-09-06 23:04 40.34159 49.39591 8515 ft 345 kts 110°
2025-09-06 23:05 40.32507 49.45393 7703 ft 330 kts 110°
2025-09-06 23:05 40.31007 49.50888 7141 ft 311 kts 109°
2025-09-06 23:06 40.29573 49.56059 6555 ft 296 kts 108°
2025-09-06 23:06 40.28601 49.61172 5926 ft 284 kts 99°
2025-09-06 23:07 40.27582 49.68650 5019 ft 275 kts 100°
2025-09-06 23:07 40.27248 49.71113 4732 ft 273 kts 100°
2025-09-06 23:08 40.26200 49.78276 4047 ft 259 kts 101°
2025-09-06 23:09 40.25508 49.82799 3544 ft 246 kts 101°
2025-09-06 23:09 40.24850 49.87056 3293 ft 235 kts 100°
2025-09-06 23:10 40.24227 49.91223 3203 ft 230 kts 100°
2025-09-06 23:10 40.23930 49.93247 3071 ft 223 kts 99°
2025-09-06 23:11 40.22863 50.00691 2692 ft 191 kts 99°
2025-09-06 23:11 40.22632 50.02402 2517 ft 187 kts 96°
2025-09-06 23:12 40.23748 50.04986 2313 ft 172 kts 28°
2025-09-06 23:12 40.25950 50.06153 2254 ft 172 kts 12°
2025-09-06 23:13 40.28302 50.06325 2069 ft 160 kts
2025-09-06 23:13 40.29427 50.06355 2019 ft 169 kts
2025-09-06 23:14 40.33034 50.06496 2016 ft 174 kts
2025-09-06 23:14 40.35455 50.06479 1983 ft 169 kts
2025-09-06 23:14 40.36587 50.06459 1830 ft 156 kts
2025-09-06 23:15 40.39547 50.06418 1107 ft 141 kts 360°
2025-09-06 23:16 40.41518 50.06369 860 ft 141 kts 357°
2025-09-06 23:16 40.43461 50.06355 490 ft 136 kts 360°
2025-09-06 23:17 40.45339 50.06322 151 ft 135 kts 360°
2025-09-06 23:17 40.46781 50.06296 16 ft 98 kts 358°
2025-09-06 23:18 40.47497 50.06218 16 ft 27 kts 331°
2025-09-06 23:18 40.47566 50.06106 16 ft 14 kts 247°
2025-09-06 23:18 40.47371 50.06085 16 ft 15 kts 179°
2025-09-06 23:19 40.47044 50.06089 16 ft 16 kts 179°
2025-09-06 23:20 40.46937 50.05894 16 ft 16 kts 270°
2025-09-06 23:20 40.46934 50.05745 16 ft 16 kts 267°
2025-09-06 23:21 40.46874 50.05351 16 ft 12 kts 202°
2025-09-06 23:21 40.46795 50.05382 16 ft 13 kts 144°
2025-09-06 23:22 40.46678 50.05320 16 ft 0 kts 230°
2025-09-06 23:22 40.46677 50.05319 16 ft 0 kts 229°